| time (UTC) | temp F | wind direction | speed MPH | gust MPH | rain 1hr in | rain 24hr in | rain mn in | humidity % | barometer mb |
| 20260901043002 | 59 | 150 | 0.0 | 2.0 | 0.00 | 0.00 | 0.00 | 85 | 1009.1 |
| 20260901041501 | 59 | 187 | 0.0 | 2.0 | 0.00 | 0.00 | 0.00 | 84 | 1009.1 |
| 20260901040101 | 59 | 202 | 0.0 | 2.0 | 0.00 | 0.00 | 0.00 | 85 | 1009.1 |
| 20260901034608 | 59 | 165 | 0.0 | 4.0 | 0.00 | 0.00 | 0.00 | 84 | 1009.0 |
| 20260901033113 | 61 | 214 | 0.0 | 2.0 | 0.00 | 0.00 | 0.00 | 81 | 1008.9 |
| 20260901031602 | 61 | 154 | 0.0 | 2.0 | 0.00 | 0.00 | 0.00 | 80 | 1008.9 |
| 20260901030058 | 62 | 226 | 1.0 | 4.0 | 0.00 | 0.00 | 0.00 | 79 | 1008.9 |
| 20260901024602 | 63 | 158 | 0.0 | 2.0 | 0.00 | 0.00 | 0.00 | 78 | 1009.0 |
| 20260901023057 | 63 | 107 | 0.0 | 2.0 | 0.00 | 0.00 | 0.00 | 77 | 1009.0 |
| 20260901021555 | 64 | 123 | 2.0 | 4.0 | 0.00 | 0.00 | 0.00 | 75 | 1009.0 |
| 20260901020053 | 65 | 108 | 0.0 | 5.0 | 0.00 | 0.00 | 0.00 | 76 | 1009.1 |
| 20260901014604 | 65 | 77 | 1.0 | 5.0 | 0.00 | 0.00 | 0.00 | 75 | 1009.3 |
| 20260901013051 | 65 | 210 | 0.0 | 0.0 | 0.00 | 0.00 | 0.00 | 76 | 1009.3 |
| 20260901011550 | 66 | 283 | 0.0 | 2.0 | 0.00 | 0.00 | 0.00 | 75 | 1009.4 |
| 20260901010049 | 67 | 314 | 0.0 | 2.0 | 0.00 | 0.00 | 0.00 | 73 | 1009.6 |
| 20260901004600 | 68 | 60 | 1.0 | 2.0 | 0.00 | 0.00 | 0.00 | 71 | 1009.5 |
| 20260901003047 | 70 | 276 | 0.0 | 4.0 | 0.00 | 0.00 | 0.00 | 68 | 1009.7 |
| 20260901001552 | 70 | 228 | 0.0 | 1.0 | 0.00 | 0.00 | 0.00 | 70 | 1009.7 |
| 20260901000050 | 67 | 351 | 0.0 | 3.0 | 0.00 | 0.00 | 0.00 | 74 | 1010.0 |
| 20260831234542 | 67 | 322 | 0.0 | 3.0 | 0.00 | 0.00 | 0.00 | 72 | 1010.1 |
| 20260831233040 | 68 | 19 | 1.0 | 5.0 | 0.00 | 0.00 | 0.00 | 71 | 1010.3 |
| 20260831231540 | 69 | 302 | 1.0 | 3.0 | 0.00 | 0.00 | 0.00 | 70 | 1010.5 |
| 20260831230035 | 67 | 37 | 0.0 | 3.0 | 0.00 | 0.00 | 0.00 | 77 | 1010.7 |
| 20260831224533 | 65 | 3 | 2.0 | 7.0 | 0.00 | 0.00 | 0.00 | 76 | 1010.9 |
| 20260831223032 | 67 | 30 | 2.0 | 6.0 | 0.00 | 0.00 | 0.00 | 74 | 1011.1 |
| 20260831221536 | 67 | 318 | 0.0 | 3.0 | 0.00 | 0.00 | 0.00 | 73 | 1011.2 |
| 20260831220030 | 66 | 19 | 1.0 | 5.0 | 0.00 | 0.00 | 0.00 | 75 | 1011.4 |
| 20260831214534 | 69 | 16 | 1.0 | 5.0 | 0.00 | 0.00 | 0.00 | 70 | 1011.5 |
| 20260831213025 | 68 | 336 | 1.0 | 5.0 | 0.00 | 0.00 | 0.00 | 70 | 1011.7 |
| 20260831211524 | 69 | 348 | 2.0 | 5.0 | 0.00 | 0.00 | 0.00 | 69 | 1011.9 |
| 20260831210022 | 69 | 30 | 2.0 | 5.0 | 0.00 | 0.00 | 0.00 | 68 | 1012.0 |
| 20260831204522 | 68 | 300 | 1.0 | 4.0 | 0.00 | 0.00 | 0.00 | 70 | 1012.2 |
| 20260831203017 | 67 | 295 | 1.0 | 4.0 | 0.00 | 0.00 | 0.00 | 71 | 1012.4 |
| 20260831201515 | 67 | 11 | 2.0 | 5.0 | 0.00 | 0.00 | 0.00 | 71 | 1012.6 |
| 20260831200012 | 67 | 16 | 1.0 | 6.0 | 0.00 | 0.00 | 0.00 | 73 | 1012.7 |
| 20260831194509 | 66 | 330 | 1.0 | 5.0 | 0.00 | 0.00 | 0.00 | 73 | 1012.9 |
| 20260831193006 | 65 | 8 | 0.0 | 5.0 | 0.00 | 0.00 | 0.00 | 75 | 1013.1 |
| 20260831191502 | 64 | 8 | 1.0 | 6.0 | 0.00 | 0.00 | 0.00 | 77 | 1013.3 |
| 20260831190121 | 64 | 347 | 1.0 | 7.0 | 0.00 | 0.00 | 0.00 | 80 | 1013.4 |
| 20260831184605 | 62 | 318 | 2.0 | 8.0 | 0.00 | 0.00 | 0.00 | 81 | 1013.6 |
| 20260831183055 | 62 | 322 | 2.0 | 8.0 | 0.00 | 0.00 | 0.00 | 82 | 1013.8 |
| 20260831181559 | 62 | 354 | 2.0 | 7.0 | 0.00 | 0.00 | 0.00 | 81 | 1014.0 |
| 20260831180049 | 61 | 20 | 2.0 | 8.0 | 0.00 | 0.00 | 0.00 | 83 | 1014.1 |
| 20260831174546 | 60 | 7 | 2.0 | 4.0 | 0.00 | 0.00 | 0.00 | 84 | 1014.3 |
| 20260831173043 | 59 | 350 | 0.0 | 4.0 | 0.00 | 0.00 | 0.00 | 87 | 1014.4 |
| 20260831171540 | 58 | 333 | 0.0 | 4.0 | 0.00 | 0.00 | 0.00 | 88 | 1014.5 |
| 20260831170038 | 58 | 22 | 2.0 | 4.0 | 0.00 | 0.00 | 0.00 | 89 | 1014.5 |
| 20260831164549 | 57 | 3 | 2.0 | 5.0 | 0.00 | 0.00 | 0.00 | 90 | 1014.6 |
| 20260831163038 | 57 | 354 | 1.0 | 6.0 | 0.00 | 0.00 | 0.00 | 91 | 1014.6 |
| 20260831161533 | 57 | 28 | 2.0 | 6.0 | 0.00 | 0.00 | 0.00 | 91 | 1014.6 |
| 20260831160034 | 57 | 50 | 1.0 | 5.0 | 0.00 | 0.00 | 0.00 | 93 | 1014.8 |
| 20260831154535 | 56 | 37 | 3.0 | 5.0 | 0.00 | 0.00 | 0.00 | 94 | 1014.9 |
| 20260831153032 | 56 | 65 | 1.0 | 4.0 | 0.00 | 0.00 | 0.00 | 95 | 1014.9 |
| 20260831151535 | 56 | 134 | 0.0 | 1.0 | 0.00 | 0.00 | 0.00 | 95 | 1014.9 |
| 20260831150028 | 55 | 138 | 0.0 | 0.0 | 0.00 | 0.00 | 0.00 | 97 | 1015.0 |
| 20260831144527 | 54 | 138 | 0.0 | 0.0 | 0.00 | 0.00 | 0.00 | 98 | 1014.9 |
| 20260831143029 | 53 | 138 | 0.0 | 0.0 | 0.00 | 0.00 | 0.00 | 97 | 1014.8 |
| 20260831141526 | 52 | 138 | 0.0 | 1.0 | 0.00 | 0.00 | 0.00 | 98 | 1014.8 |
| 20260831140031 | 51 | 113 | 0.0 | 1.0 | 0.00 | 0.00 | 0.00 | 97 | 1015.0 |
| 20260831134525 | 51 | 127 | 0.0 | 0.0 | 0.00 | 0.00 | 0.00 | 97 | 1014.8 |
| 20260831133024 | 52 | 128 | 0.0 | 1.0 | 0.00 | 0.00 | 0.00 | 97 | 1014.7 |
| 20260831131522 | 52 | 148 | 0.0 | 2.0 | 0.00 | 0.00 | 0.00 | 97 | 1015.0 |
| 20260831130020 | 51 | 153 | 0.0 | 2.0 | 0.00 | 0.00 | 0.00 | 97 | 1015.1 |
| 20260831124520 | 51 | 151 | 0.0 | 2.0 | 0.00 | 0.00 | 0.00 | 97 | 1015.2 |
| 20260831123019 | 51 | 152 | 0.0 | 2.0 | 0.00 | 0.00 | 0.00 | 97 | 1015.3 |
| 20260831121523 | 51 | 183 | 0.0 | 2.0 | 0.00 | 0.00 | 0.00 | 96 | 1015.4 |
| 20260831120032 | 52 | 205 | 0.0 | 3.0 | 0.00 | 0.00 | 0.00 | 96 | 1015.5 |
| 20260831114513 | 52 | 160 | 0.0 | 2.0 | 0.00 | 0.00 | 0.00 | 96 | 1015.5 |
| 20260831113011 | 52 | 139 | 1.0 | 3.0 | 0.00 | 0.00 | 0.00 | 95 | 1015.7 |
| 20260831111510 | 53 | 150 | 0.0 | 2.0 | 0.00 | 0.00 | 0.00 | 94 | 1015.7 |
| 20260831110008 | 53 | 205 | 0.0 | 0.0 | 0.00 | 0.00 | 0.00 | 93 | 1015.8 |
| 20260831104509 | 53 | 177 | 0.0 | 0.0 | 0.00 | 0.00 | 0.00 | 93 | 1015.9 |
| 20260831103012 | 53 | 139 | 0.0 | 0.0 | 0.00 | 0.00 | 0.00 | 92 | 1015.9 |
| 20260831101507 | 54 | 108 | 0.0 | 0.0 | 0.00 | 0.00 | 0.00 | 90 | 1016.0 |
| 20260831100002 | 55 | 108 | 0.0 | 0.0 | 0.00 | 0.00 | 0.00 | 90 | 1016.2 |
| 20260831094503 | 55 | 110 | 0.0 | 0.0 | 0.00 | 0.00 | 0.00 | 91 | 1016.3 |
| 20260831093147 | 55 | 123 | 0.0 | 0.0 | 0.00 | 0.00 | 0.00 | 92 | 1016.5 |
| 20260831091557 | 54 | 114 | 0.0 | 0.0 | 0.00 | 0.00 | 0.00 | 93 | 1016.6 |
| 20260831090057 | 54 | 114 | 0.0 | 2.0 | 0.00 | 0.00 | 0.00 | 95 | 1016.7 |
| 20260831084638 | 53 | 149 | 0.0 | 0.0 | 0.00 | 0.00 | 0.00 | 95 | 1016.9 |
| 20260831083100 | 53 | 150 | 0.0 | 0.0 | 0.00 | 0.00 | 0.00 | 95 | 1016.9 |
| 20260831081551 | 53 | 150 | 0.0 | 0.0 | 0.00 | 0.00 | 0.00 | 94 | 1017.1 |
| 20260831080114 | 54 | 150 | 0.0 | 0.0 | 0.00 | 0.00 | 0.00 | 94 | 1017.3 |
| 20260831074549 | 54 | 150 | 0.0 | 0.0 | 0.00 | 0.00 | 0.00 | 93 | 1017.3 |
| 20260831073044 | 55 | 169 | 0.0 | 1.0 | 0.00 | 0.00 | 0.00 | 93 | 1017.5 |
| 20260831071546 | 55 | 146 | 0.0 | 1.0 | 0.00 | 0.00 | 0.00 | 93 | 1017.6 |
| 20260831070040 | 55 | 181 | 0.0 | 1.0 | 0.00 | 0.00 | 0.00 | 93 | 1017.7 |
| 20260831064548 | 55 | 183 | 0.0 | 1.0 | 0.00 | 0.00 | 0.00 | 92 | 1017.8 |
| 20260831063057 | 56 | 143 | 0.0 | 1.0 | 0.00 | 0.00 | 0.00 | 91 | 1017.8 |
| 20260831061536 | 56 | 150 | 0.0 | 0.0 | 0.00 | 0.00 | 0.00 | 91 | 1018.0 |
| 20260831060035 | 56 | 150 | 0.0 | 0.0 | 0.00 | 0.00 | 0.00 | 91 | 1018.0 |
| 20260831054534 | 56 | 153 | 0.0 | 1.0 | 0.00 | 0.00 | 0.00 | 91 | 1018.2 |
| 20260831053035 | 56 | 165 | 1.0 | 3.0 | 0.00 | 0.00 | 0.00 | 90 | 1018.3 |
| 20260831051536 | 57 | 111 | 0.0 | 1.0 | 0.00 | 0.00 | 0.00 | 90 | 1018.4 |
| 20260831050033 | 57 | 125 | 0.0 | 2.0 | 0.00 | 0.00 | 0.00 | 89 | 1018.4 |
| 20260831044531 | 57 | 155 | 1.0 | 3.0 | 0.00 | 0.00 | 0.00 | 88 | 1018.6 |